CGMPW BIHN-EGPE

Flight info

Callsign CGMPW
Flight time N/A
Altitude 35000
Route ROSTI/N0427F350 DCT STN
Aircraft PC24/L-SBDGIRWY/LB2

Departure

Time 2026-04-27 15:25
Airport Hornafjörður Airport (BIHN)

Arrival

Time N/A
Airport Inverness Airport (EGPE)
Time Latitude Longitude Altitude Speed Heading
2026-04-27 15:25 64.12754 -14.97824 10381 ft 314 kts 159°
2026-04-27 15:25 64.10817 -14.95404 11012 ft 319 kts 159°
2026-04-27 15:26 64.08854 -14.92975 11662 ft 322 kts 159°
2026-04-27 15:26 64.06862 -14.90526 12318 ft 328 kts 159°
2026-04-27 15:26 64.04837 -14.88048 12983 ft 332 kts 159°
2026-04-27 15:26 64.02796 -14.85532 13676 ft 335 kts 159°
2026-04-27 15:27 64.00721 -14.82997 14315 ft 341 kts 159°
2026-04-27 15:27 63.98619 -14.80424 14942 ft 345 kts 159°
2026-04-27 15:27 63.96490 -14.77827 15582 ft 349 kts 159°
2026-04-27 15:27 63.94365 -14.75240 16222 ft 354 kts 159°
2026-04-27 15:28 63.92162 -14.72604 16889 ft 361 kts 159°
2026-04-27 15:28 63.89949 -14.69918 17562 ft 351 kts 159°
2026-04-27 15:28 63.87834 -14.67314 18240 ft 348 kts 160°
2026-04-27 15:28 63.85672 -14.64725 18872 ft 355 kts 160°
2026-04-27 15:29 63.83455 -14.62061 19495 ft 363 kts 159°
2026-04-27 15:29 63.81209 -14.59341 20132 ft 369 kts 159°
2026-04-27 15:29 63.78927 -14.56586 20779 ft 374 kts 159°
2026-04-27 15:29 63.76612 -14.53805 21438 ft 379 kts 159°
2026-04-27 15:30 63.74273 -14.50997 22120 ft 382 kts 159°
2026-04-27 15:30 63.71942 -14.48208 22803 ft 384 kts 159°
2026-04-27 15:30 63.69571 -14.45370 23507 ft 386 kts 159°
2026-04-27 15:30 63.67236 -14.42572 24126 ft 364 kts 159°
2026-04-27 15:31 63.65012 -14.39910 24709 ft 362 kts 160°
2026-04-27 15:31 63.62774 -14.37282 25303 ft 364 kts 160°
2026-04-27 15:31 63.60528 -14.34626 25927 ft 365 kts 160°
2026-04-27 15:31 63.58275 -14.31944 26571 ft 366 kts 159°
2026-04-27 15:32 63.56023 -14.29279 27226 ft 366 kts 160°
2026-04-27 15:32 63.53798 -14.26654 27891 ft 365 kts 159°
2026-04-27 15:32 63.51550 -14.24010 28578 ft 363 kts 159°
2026-04-27 15:32 63.49318 -14.21382 29276 ft 361 kts 159°
2026-04-27 15:33 63.47099 -14.18777 29991 ft 359 kts 159°
2026-04-27 15:33 63.44890 -14.16187 30643 ft 356 kts 159°
2026-04-27 15:33 63.42710 -14.13638 31266 ft 352 kts 160°
2026-04-27 15:33 63.40589 -14.10944 31908 ft 353 kts 152°
2026-04-27 15:34 63.38671 -14.07525 32556 ft 352 kts 146°
2026-04-27 15:34 63.36822 -14.04016 33222 ft 346 kts 147°
2026-04-27 15:34 63.34997 -14.00603 33874 ft 340 kts 147°
2026-04-27 15:34 63.33226 -13.97293 34510 ft 333 kts 147°
2026-04-27 15:35 63.31457 -13.93987 34990 ft 331 kts 147°
2026-04-27 15:35 63.29673 -13.90664 35179 ft 339 kts 147°
2026-04-27 15:35 63.27823 -13.87229 35187 ft 353 kts 146°
2026-04-27 15:35 63.25901 -13.83649 35191 ft 366 kts 146°
2026-04-27 15:36 63.23918 -13.79960 35195 ft 378 kts 146°
2026-04-27 15:36 63.21871 -13.76161 35190 ft 389 kts 146°
2026-04-27 15:36 63.17602 -13.68272 35205 ft 408 kts 146°
2026-04-27 15:37 63.13173 -13.60113 35206 ft 424 kts 145°
2026-04-27 15:37 63.08567 -13.51668 35194 ft 435 kts 145°
2026-04-27 15:38 63.03877 -13.43098 35209 ft 439 kts 145°
2026-04-27 15:38 62.99164 -13.34532 35206 ft 439 kts 145°
2026-04-27 15:39 62.94455 -13.26009 35217 ft 438 kts 145°
2026-04-27 15:39 62.89746 -13.17524 35216 ft 437 kts 145°
2026-04-27 15:40 62.85067 -13.09128 35223 ft 437 kts 145°
2026-04-27 15:40 62.80360 -13.00716 35215 ft 436 kts 145°
2026-04-27 15:41 62.75651 -12.92338 35221 ft 436 kts 145°
2026-04-27 15:41 62.70944 -12.83998 35226 ft 436 kts 145°
2026-04-27 15:42 62.66231 -12.75683 35230 ft 436 kts 145°
2026-04-27 15:42 62.61532 -12.67429 35230 ft 436 kts 146°
2026-04-27 15:43 62.56809 -12.59167 35236 ft 438 kts 145°
2026-04-27 15:43 62.52027 -12.50839 35245 ft 443 kts 145°
2026-04-27 15:44 62.47248 -12.42544 35247 ft 443 kts 145°
2026-04-27 15:44 62.42435 -12.34233 35258 ft 442 kts 145°
2026-04-27 15:45 62.37626 -12.25961 35254 ft 442 kts 145°
2026-04-27 15:45 62.32806 -12.17706 35262 ft 442 kts 145°
2026-04-27 15:46 62.27991 -12.09493 35257 ft 441 kts 145°
2026-04-27 15:46 62.23186 -12.01334 35263 ft 441 kts 145°
2026-04-27 15:47 62.18386 -11.93215 35267 ft 441 kts 145°
2026-04-27 15:47 62.13581 -11.85122 35279 ft 441 kts 145°
2026-04-27 15:48 62.09556 -11.78369 35276 ft 441 kts 145°
2026-04-27 15:49 62.02317 -11.66281 35280 ft 440 kts 145°
2026-04-27 15:49 61.97485 -11.58255 35287 ft 440 kts 145°
2026-04-27 15:50 61.92644 -11.50248 35297 ft 444 kts 144°
2026-04-27 15:50 61.87755 -11.42191 35308 ft 445 kts 145°
2026-04-27 15:51 61.82865 -11.34169 35306 ft 444 kts 145°
2026-04-27 15:51 61.78008 -11.26234 35312 ft 443 kts 145°
2026-04-27 15:52 61.73124 -11.18287 35300 ft 442 kts 144°
2026-04-27 15:52 61.68249 -11.10387 35312 ft 442 kts 145°
2026-04-27 15:53 61.63358 -11.02494 35307 ft 442 kts 145°
2026-04-27 15:53 61.58472 -10.94639 35316 ft 441 kts 145°
2026-04-27 15:54 61.53587 -10.86821 35315 ft 441 kts 145°
2026-04-27 15:54 61.48720 -10.79063 35314 ft 443 kts 145°
2026-04-27 15:55 61.43790 -10.71234 35326 ft 446 kts 145°
2026-04-27 15:55 61.38837 -10.63400 35328 ft 445 kts 145°
2026-04-27 15:56 61.33903 -10.55630 35325 ft 443 kts 145°
2026-04-27 15:56 61.28971 -10.47895 35339 ft 447 kts 145°
2026-04-27 15:57 61.24021 -10.40160 35340 ft 448 kts 145°
2026-04-27 15:57 61.19033 -10.32399 35345 ft 447 kts 145°
2026-04-27 15:58 61.14050 -10.24685 35349 ft 447 kts 145°
2026-04-27 15:58 61.09065 -10.17004 35349 ft 446 kts 145°
2026-04-27 15:59 61.04085 -10.09341 35348 ft 446 kts 145°
2026-04-27 15:59 60.99129 -10.01756 35348 ft 446 kts 145°
2026-04-27 16:00 60.94137 -9.94140 35353 ft 445 kts 144°
2026-04-27 16:00 60.89150 -9.86566 35352 ft 445 kts 144°
2026-04-27 16:01 60.84194 -9.79068 35358 ft 445 kts 144°
2026-04-27 16:01 60.79209 -9.71556 35358 ft 444 kts 145°
2026-04-27 16:02 60.74225 -9.64073 35357 ft 444 kts 145°
2026-04-27 16:02 60.69236 -9.56615 35374 ft 444 kts 144°
2026-04-27 16:03 60.64200 -9.49117 35382 ft 450 kts 144°
2026-04-27 16:03 60.59142 -9.41613 35383 ft 451 kts 144°
2026-04-27 16:04 60.54339 -9.34516 35380 ft 451 kts 144°
2026-04-27 16:04 60.49260 -9.27039 35382 ft 451 kts 144°
2026-04-27 16:05 60.44172 -9.19581 35382 ft 451 kts 144°
2026-04-27 16:05 60.39087 -9.12153 35372 ft 450 kts 144°
2026-04-27 16:06 60.34009 -9.04766 35372 ft 450 kts 144°
2026-04-27 16:06 60.28924 -8.97398 35379 ft 449 kts 144°
2026-04-27 16:07 60.23839 -8.90058 35379 ft 449 kts 144°
2026-04-27 16:07 60.18791 -8.82802 35381 ft 449 kts 144°
2026-04-27 16:08 60.13701 -8.75512 35384 ft 448 kts 144°
2026-04-27 16:08 60.08613 -8.68255 35383 ft 448 kts 144°
2026-04-27 16:09 60.03521 -8.61020 35393 ft 452 kts 143°
2026-04-27 16:09 59.95755 -8.50029 35401 ft 460 kts 143°
2026-04-27 16:10 59.85269 -8.35304 35404 ft 461 kts 143°
2026-04-27 16:11 59.77396 -8.24324 35407 ft 461 kts 143°
2026-04-27 16:12 59.69513 -8.13391 35407 ft 461 kts 143°
2026-04-27 16:13 59.61641 -8.02541 35403 ft 461 kts 143°
2026-04-27 16:13 59.53735 -7.91703 35403 ft 461 kts 143°
2026-04-27 16:14 59.43186 -7.77342 35418 ft 462 kts 143°
2026-04-27 16:15 59.32605 -7.63050 35393 ft 463 kts 143°
2026-04-27 16:16 59.21937 -7.48750 35406 ft 464 kts 143°
2026-04-27 16:17 59.11285 -7.34580 35405 ft 465 kts 143°
2026-04-27 16:18 59.00573 -7.20441 35414 ft 465 kts 143°
2026-04-27 16:19 58.95210 -7.13402 35411 ft 466 kts 143°
2026-04-27 16:20 58.84459 -6.99372 35441 ft 466 kts 143°
2026-04-27 16:21 58.76391 -6.88914 35410 ft 467 kts 143°
2026-04-27 16:22 58.65567 -6.74977 35409 ft 468 kts 143°
2026-04-27 16:22 58.57426 -6.64563 35413 ft 469 kts 143°
2026-04-27 16:23 58.49298 -6.54226 35413 ft 469 kts 143°
2026-04-27 16:24 58.43852 -6.47332 35413 ft 469 kts 143°
2026-04-27 16:25 58.32951 -6.33609 35428 ft 469 kts 143°
2026-04-27 16:26 58.22055 -6.19996 35431 ft 470 kts 143°
2026-04-27 16:27 58.10716 -6.07486 35427 ft 473 kts 146°
2026-04-27 16:28 57.96443 -5.92108 35415 ft 475 kts 147°
2026-04-27 16:29 57.82042 -5.76750 35409 ft 476 kts 147°
2026-04-27 16:30 57.70514 -5.64556 35409 ft 477 kts 147°
2026-04-27 16:31 57.56225 -5.49586 35379 ft 434 kts 146°
2026-04-27 16:32 57.51217 -5.44352 35377 ft 405 kts 146°
2026-04-27 16:32 57.48728 -5.41746 35385 ft 415 kts 146°
2026-04-27 16:33 57.43543 -5.36370 35399 ft 437 kts 146°
2026-04-27 16:33 57.40855 -5.33592 35390 ft 446 kts 146°
2026-04-27 16:33 57.35377 -5.27932 35386 ft 460 kts 146°
2026-04-27 16:34 57.29701 -5.22096 35385 ft 471 kts 146°
2026-04-27 16:34 57.23939 -5.16193 35292 ft 475 kts 146°
2026-04-27 16:35 57.22011 -5.14216 34928 ft 480 kts 146°
2026-04-27 16:35 57.19093 -5.11239 34289 ft 477 kts 146°
2026-04-27 16:35 57.13299 -5.05342 33006 ft 478 kts 146°
2026-04-27 16:36 57.10382 -5.02371 32371 ft 480 kts 146°
2026-04-27 16:36 57.07451 -4.99403 31740 ft 482 kts 146°
2026-04-27 16:36 57.04509 -4.96432 31103 ft 483 kts 146°
2026-04-27 16:36 57.01562 -4.93457 30461 ft 484 kts 147°
2026-04-27 16:37 56.98612 -4.90481 29761 ft 483 kts 147°
2026-04-27 16:37 56.95694 -4.87541 29148 ft 487 kts 147°
2026-04-27 16:37 56.92716 -4.84547 28497 ft 487 kts 147°
2026-04-27 16:37 56.89744 -4.81572 27854 ft 486 kts 147°
2026-04-27 16:38 56.86790 -4.78620 27217 ft 483 kts 147°
2026-04-27 16:38 56.83852 -4.75683 26583 ft 478 kts 147°
2026-04-27 16:38 56.80951 -4.72790 25958 ft 471 kts 147°
2026-04-27 16:38 56.78083 -4.69935 25332 ft 466 kts 147°
2026-04-27 16:39 56.75251 -4.67119 24717 ft 461 kts 147°
2026-04-27 16:39 56.72411 -4.64299 24117 ft 471 kts 147°
2026-04-27 16:39 56.69538 -4.61449 23441 ft 466 kts 147°
2026-04-27 16:39 56.66745 -4.58703 22735 ft 457 kts 147°
2026-04-27 16:40 56.63964 -4.55957 21888 ft 448 kts 147°
2026-04-27 16:40 56.61260 -4.53293 21294 ft 435 kts 147°
2026-04-27 16:40 56.58621 -4.50692 20722 ft 429 kts 147°
2026-04-27 16:40 56.56015 -4.48130 20160 ft 423 kts 148°
2026-04-27 16:41 56.53436 -4.45608 19606 ft 418 kts 148°
2026-04-27 16:41 56.50890 -4.43116 19052 ft 414 kts 148°
2026-04-27 16:41 56.48379 -4.40643 18495 ft 408 kts 148°
2026-04-27 16:41 56.45896 -4.38226 17930 ft 402 kts 148°
2026-04-27 16:42 56.43441 -4.35844 17403 ft 398 kts 148°
2026-04-27 16:42 56.41007 -4.33473 16877 ft 396 kts 148°
2026-04-27 16:42 56.38595 -4.31127 16354 ft 391 kts 148°
2026-04-27 16:42 56.36242 -4.28846 15851 ft 384 kts 148°
2026-04-27 16:43 56.33890 -4.26558 15341 ft 382 kts 148°
2026-04-27 16:43 56.31559 -4.24306 14832 ft 379 kts 149°
2026-04-27 16:43 56.29248 -4.22076 14338 ft 374 kts 149°
2026-04-27 16:43 56.26968 -4.19879 13818 ft 369 kts 149°
2026-04-27 16:44 56.24725 -4.17712 13324 ft 363 kts 149°
2026-04-27 16:44 56.22509 -4.15581 12845 ft 359 kts 149°
2026-04-27 16:44 56.20315 -4.13471 12379 ft 356 kts 149°
2026-04-27 16:44 56.18142 -4.11387 11909 ft 353 kts 149°
2026-04-27 16:45 56.16015 -4.09350 11456 ft 348 kts 149°
2026-04-27 16:45 56.13897 -4.07317 10994 ft 343 kts 149°
2026-04-27 16:45 56.11799 -4.05316 10543 ft 339 kts 149°
2026-04-27 16:45 56.09733 -4.03338 10081 ft 334 kts 149°
2026-04-27 16:46 56.07695 -4.01397 9628 ft 329 kts 150°
2026-04-27 16:46 56.05675 -3.99471 9192 ft 328 kts 149°
2026-04-27 16:46 56.03665 -3.97555 8741 ft 327 kts 150°
2026-04-27 16:46 56.01649 -3.95642 8328 ft 327 kts 150°
2026-04-27 16:47 55.99643 -3.93738 7896 ft 324 kts 150°
2026-04-27 16:47 55.97666 -3.91863 7471 ft 321 kts 150°
2026-04-27 16:47 55.95699 -3.89999 7047 ft 318 kts 150°
2026-04-27 16:47 55.93786 -3.88192 6648 ft 296 kts 150°
2026-04-27 16:48 55.92127 -3.86630 6215 ft 244 kts 150°
2026-04-27 16:48 55.90741 -3.85323 5907 ft 209 kts 150°
2026-04-27 16:48 55.89556 -3.84204 5679 ft 178 kts 150°
2026-04-27 16:49 55.87591 -3.82346 5266 ft 151 kts 150°
2026-04-27 16:49 55.86667 -3.81474 5086 ft 150 kts 150°
2026-04-27 16:49 55.85746 -3.80609 4892 ft 149 kts 150°
2026-04-27 16:49 55.84824 -3.79737 4703 ft 151 kts 150°
2026-04-27 16:50 55.83891 -3.78863 4498 ft 151 kts 150°
2026-04-27 16:50 55.82963 -3.77992 4292 ft 151 kts 150°
2026-04-27 16:50 55.82039 -3.77120 4098 ft 150 kts 150°
2026-04-27 16:50 55.81139 -3.76242 3987 ft 145 kts 138°
2026-04-27 16:51 55.80788 -3.74572 3993 ft 146 kts 69°
2026-04-27 16:51 55.81487 -3.73387 4056 ft 143 kts 17°
2026-04-27 16:51 55.82372 -3.72749 4039 ft 133 kts 29°
2026-04-27 16:51 55.83078 -3.71825 3982 ft 123 kts 46°
2026-04-27 16:52 55.83578 -3.70538 4015 ft 123 kts 53°
2026-04-27 16:52 55.84054 -3.69274 4013 ft 128 kts 55°
2026-04-27 16:52 55.84504 -3.67983 4005 ft 122 kts 55°
2026-04-27 16:52 55.84954 -3.66671 4013 ft 122 kts 55°
2026-04-27 16:53 55.85400 -3.65365 4013 ft 123 kts 56°
2026-04-27 16:53 55.85843 -3.64056 4003 ft 123 kts 55°
2026-04-27 16:53 55.86288 -3.62751 4033 ft 122 kts 56°
2026-04-27 16:53 55.86729 -3.61452 4043 ft 123 kts 55°
2026-04-27 16:54 55.87163 -3.60160 4055 ft 122 kts 55°
2026-04-27 16:54 55.87614 -3.58861 3944 ft 126 kts 54°
2026-04-27 16:54 55.88085 -3.57570 3543 ft 122 kts 53°
2026-04-27 16:54 55.88536 -3.56312 3134 ft 118 kts 56°
2026-04-27 16:55 55.88953 -3.54962 3021 ft 122 kts 58°
2026-04-27 16:55 55.89352 -3.53643 2693 ft 119 kts 58°
2026-04-27 16:55 55.89754 -3.52360 2397 ft 120 kts 57°
2026-04-27 16:55 55.90205 -3.51121 2131 ft 117 kts 54°
2026-04-27 16:56 55.90663 -3.49928 1834 ft 116 kts 53°
2026-04-27 16:56 55.91104 -3.48757 1639 ft 114 kts 56°
2026-04-27 16:56 55.91550 -3.47547 1409 ft 117 kts 57°
2026-04-27 16:56 55.91974 -3.46346 1162 ft 113 kts 59°
2026-04-27 16:57 55.92378 -3.45091 980 ft 116 kts 60°
2026-04-27 16:57 55.92787 -3.43873 796 ft 117 kts 59°
2026-04-27 16:57 55.93175 -3.42641 655 ft 112 kts 59°
2026-04-27 16:57 55.93575 -3.41449 471 ft 112 kts 57°
2026-04-27 16:58 55.93981 -3.40279 316 ft 114 kts 58°
2026-04-27 16:58 55.94375 -3.39070 149 ft 105 kts 58°
2026-04-27 16:58 55.94684 -3.38185 112 ft 43 kts 58°
2026-04-27 16:58 55.94825 -3.37778 110 ft 37 kts 58°
2026-04-27 16:59 55.94945 -3.37416 102 ft 31 kts 59°
2026-04-27 16:59 55.95060 -3.37068 104 ft 33 kts 59°
2026-04-27 16:59 55.95181 -3.36709 105 ft 31 kts 59°
2026-04-27 16:59 55.95251 -3.36459 98 ft 14 kts 93°
2026-04-27 17:00 55.95178 -3.36334 99 ft 0 kts 148°
2026-04-27 17:01 55.95173 -3.36329 99 ft 6 kts 148°
2026-04-27 17:01 55.95127 -3.36184 99 ft 18 kts 107°
2026-04-27 17:01 55.95092 -3.35994 101 ft 14 kts 111°
2026-04-27 17:01 55.95042 -3.35858 101 ft 12 kts 155°
2026-04-27 17:02 55.94963 -3.35852 103 ft 10 kts 175°
2026-04-27 17:02 55.94907 -3.35770 103 ft 12 kts 115°
2026-04-27 17:02 55.94866 -3.35634 103 ft 13 kts 122°
2026-04-27 17:02 55.94820 -3.35484 104 ft 14 kts 115°
2026-04-27 17:03 55.94772 -3.35334 105 ft 14 kts 121°
2026-04-27 17:03 55.94725 -3.35178 107 ft 13 kts 117°
2026-04-27 17:03 55.94681 -3.35054 108 ft 11 kts 148°
2026-04-27 17:03 55.94661 -3.34965 109 ft 7 kts 73°
2026-04-27 17:04 55.94662 -3.34914 109 ft 2 kts 144°
2026-04-27 17:04 55.94655 -3.34910 110 ft 0 kts 166°